Theta_e
330 329 329 328 329 330 329 328 328 328 328 327 327 326 326 326 326 326 326 326 327 327 327 327 327 327 327 327 327 327 327 326 326 326 327 326 323 321 320 323 327 326 323 324 323 323 322 321 320 319 320 320 319 318 318 317 316 315 318 316 316 316 316 316 315 315 315 314 314 314 313 314 313 312 312 314 313 313 312 312 312 312 312 311 311
330 330 328 328 329 329 327 327 327 327 327 326 326 326 325 325 325 325 325 325 325 326 326 326 326 325 326 326 326 326 326 326 325 326 326 326 324 323 317 319 324 327 324 323 323 323 322 321 320 320 319 318 320 319 317 317 317 316 315 317 316 315 315 315 315 315 314 314 313 313 313 313 313 313 311 311 313 312 312 311 311 311 311 310 310
330 330 329 328 328 327 326 326 326 326 326 326 326 325 325 324 325 324 324 324 324 325 324 324 324 325 325 325 326 325 325 325 325 325 325 325 325 323 322 316 319 322 326 324 323 323 322 321 321 320 320 319 318 320 320 318 318 316 315 315 316 315 314 314 314 314 314 313 313 313 312 312 312 312 311 310 311 312 311 311 311 311 310 309 309
331 331 329 328 326 325 325 325 324 324 325 325 324 324 324 325 325 325 325 324 323 324 324 323 323 323 324 324 325 325 324 324 324 324 324 324 325 323 321 321 316 318 321 326 323 323 322 321 321 321 320 320 319 318 317 317 316 316 316 315 315 315 314 314 314 314 313 313 313 312 312 312 312 311 310 310 310 310 311 310 310 309 309 308 308
330 330 329 328 326 325 325 325 324 324 323 324 324 324 323 323 323 323 323 323 322 322 324 323 322 322 323 323 324 323 324 324 323 323 323 324 323 323 322 321 320 316 316 319 324 323 322 321 321 321 320 320 319 318 318 317 316 316 317 316 316 315 315 314 314 313 313 313 312 312 311 311 311 311 310 310 309 309 310 309 309 309 309 309 307
331 330 330 327 326 325 324 323 324 324 323 323 322 322 322 322 321 321 319 320 320 321 320 320 321 322 322 322 323 323 323 323 322 322 323 323 323 322 322 321 320 320 321 316 318 322 324 322 321 320 321 321 320 319 318 317 317 316 316 317 317 316 316 315 314 314 313 313 312 312 311 311 311 311 310 309 310 309 309 309 309 308 308 308 307
331 330 329 327 326 325 324 323 323 323 321 321 321 321 321 321 321 320 320 319 320 320 320 320 320 320 320 321 320 322 322 321 322 322 322 322 322 321 320 320 320 320 320 319 314 315 321 323 321 320 321 321 320 319 319 318 318 317 317 318 318 317 317 316 315 314 313 313 312 312 311 311 311 311 311 310 309 309 309 309 308 308 308 308 307
330 330 329 327 325 323 323 324 323 321 321 321 320 319 320 320 321 320 318 318 319 319 320 319 320 320 320 319 320 320 318 319 321 321 321 321 320 319 319 319 319 319 317 319 318 317 316 320 323 321 321 320 321 320 320 319 319 318 318 318 318 318 317 317 316 315 314 314 313 313 312 312 312 311 311 310 309 309 309 309 308 308 308 307 307
330 329 327 326 324 323 323 324 322 320 320 320 319 319 319 319 319 319 320 318 318 318 318 318 318 318 319 318 318 317 317 319 319 319 320 317 318 318 318 318 318 311 317 318 318 317 315 315 317 321 321 322 320 320 320 320 320 319 319 319 319 318 317 317 316 315 314 314 313 313 312 312 312 312 311 311 310 309 309 308 308 308 308 307 307
328 328 327 326 325 324 323 323 321 320 320 319 318 319 318 318 317 318 318 318 317 317 317 317 317 317 317 316 315 314 315 317 316 313 314 315 316 315 315 316 316 315 315 316 317 317 317 314 314 315 313 316 322 320 321 321 320 320 319 320 320 319 318 317 316 316 315 314 313 313 313 313 312 312 311 311 310 310 309 308 309 308 307 307 307
329 327 326 325 324 323 322 321 320 320 319 318 317 317 317 318 317 316 318 318 317 317 317 317 317 315 314 314 314 314 314 313 311 311 312 312 313 314 314 312 312 313 313 313 314 315 317 317 316 315 315 313 317 321 320 321 319 320 320 319 319 322 320 318 317 316 315 314 313 313 313 312 312 312 311 311 310 310 310 309 309 308 308 307 307
330 329 327 325 324 323 322 322 320 319 318 316 316 316 316 316 316 316 316 316 317 317 317 316 315 313 312 313 313 311 309 308 307 307 308 308 309 309 308 308 307 308 308 309 311 312 314 316 316 315 315 314 313 317 320 321 320 320 321 320 320 320 319 318 318 316 315 314 314 314 313 313 312 312 312 311 311 310 310 309 309 309 307 307 307
330 330 327 324 325 325 323 322 320 318 317 317 317 317 316 316 315 316 315 314 314 315 315 315 312 310 311 310 309 309 307 305 305 305 305 305 306 305 305 305 305 305 305 306 307 308 310 312 314 315 315 314 313 311 314 318 318 320 321 321 321 321 320 318 318 317 315 315 315 314 314 313 313 312 312 312 311 311 311 311 309 309 308 308 307
330 330 327 326 325 325 324 321 318 317 317 317 317 314 316 315 315 314 315 313 312 313 313 311 309 308 308 308 307 308 304 302 301 303 303 302 303 303 303 303 304 305 305 304 304 305 307 309 311 312 313 314 314 313 312 312 314 320 320 320 321 322 321 320 319 318 317 316 315 314 314 314 313 312 313 312 312 312 311 311 311 310 309 308 308
329 328 326 326 325 325 323 321 318 316 314 314 315 315 315 314 314 313 311 312 312 315 313 311 308 309 310 306 305 305 306 301 303 303 303 302 301 301 302 303 302 303 304 303 302 302 303 305 306 308 310 312 313 313 311 309 310 311 317 319 319 322 322 321 320 319 318 316 315 315 314 314 313 313 313 313 313 312 312 311 311 310 310 309 308
329 327 326 327 326 325 324 321 318 317 315 314 315 314 314 313 313 312 312 309 310 311 313 310 309 309 304 305 304 302 301 306 307 307 305 303 303 302 303 303 302 302 302 302 302 302 302 303 304 305 307 308 310 311 312 310 309 309 309 311 315 319 321 321 321 321 318 318 317 315 315 314 314 314 313 313 313 313 312 311 311 310 310 310 309
330 330 329 328 327 325 324 323 322 320 318 316 315 315 315 314 313 311 311 310 310 310 307 308 308 311 310 303 301 299 301 306 307 308 306 302 303 304 304 304 302 301 302 302 303 302 302 302 302 303 303 304 306 307 309 310 310 307 309 307 311 316 317 320 320 321 320 319 318 317 315 315 314 314 314 314 313 313 313 312 311 311 310 310 309
332 332 332 327 327 326 325 324 323 321 317 317 316 315 314 313 312 311 310 311 311 309 306 305 306 308 312 312 312 308 307 307 306 303 305 306 306 305 305 305 304 303 303 303 303 303 302 301 302 301 301 302 303 304 305 307 307 309 309 310 314 316 318 318 319 321 321 320 319 318 317 316 315 315 314 314 314 314 313 312 312 311 311 310 310
333 331 329 327 327 327 326 324 322 319 317 315 314 314 314 313 312 311 311 311 310 307 308 307 304 305 307 309 309 305 304 304 303 304 301 304 304 306 305 305 304 303 302 303 302 303 303 302 301 302 301 301 301 302 303 304 307 309 312 313 316 316 317 317 318 318 319 320 320 319 319 317 316 315 314 314 313 313 313 312 312 312 311 311 311
332 330 329 328 327 327 326 324 322 321 318 314 314 314 312 312 312 311 311 310 309 308 308 310 303 304 304 305 305 306 305 302 300 300 299 296 301 303 303 304 304 303 302 302 303 302 303 303 302 302 302 301 301 301 301 303 304 305 307 313 316 317 317 317 317 316 317 316 319 319 319 319 317 316 315 314 314 313 312 312 312 312 312 311 311
332 331 330 329 327 327 326 323 321 320 316 316 315 314 313 312 311 310 309 309 309 309 309 308 308 306 305 302 302 303 304 304 302 299 296 296 298 300 303 303 301 302 302 302 302 303 303 302 303 303 302 301 301 301 301 301 301 303 306 310 314 317 317 317 316 316 315 315 317 317 317 319 318 317 316 315 314 313 312 312 312 312 312 312 311
330 331 331 330 328 326 325 324 322 321 317 318 315 313 313 312 312 311 310 309 309 308 308 308 309 309 308 307 302 302 302 302 302 301 300 299 297 299 302 303 302 303 300 300 299 300 301 302 302 302 302 301 301 300 300 300 300 301 302 305 310 314 317 316 316 316 316 317 316 316 314 316 318 318 317 316 315 314 313 312 312 312 312 311 311
330 330 331 331 330 327 325 325 326 323 319 317 315 313 312 313 313 313 311 309 309 309 307 307 308 308 307 306 306 306 304 303 303 303 302 299 298 298 300 302 301 302 304 300 300 300 300 300 300 301 302 301 301 300 299 299 298 299 300 302 305 308 312 316 317 316 316 316 316 315 316 315 314 316 317 317 316 314 314 313 312 312 312 312 311
328 328 328 329 327 327 326 325 324 323 320 319 316 314 314 314 314 313 312 311 310 308 308 307 307 308 308 307 306 307 307 306 306 305 303 302 303 303 303 305 304 304 306 304 302 300 300 299 300 300 301 301 301 300 300 300 299 298 298 299 302 305 309 313 315 315 316 316 315 314 315 315 314 313 313 315 316 315 314 313 313 313 312 312 311
325 326 327 328 328 326 325 323 323 323 322 321 319 318 315 314 313 312 311 310 309 309 308 308 308 307 307 308 307 307 306 307 307 306 307 306 305 302 303 304 301 302 304 299 300 298 300 300 300 300 300 301 301 300 300 299 299 298 297 297 300 302 304 307 311 314 314 315 314 315 315 314 314 313 312 312 313 315 314 313 313 313 312 311 311
323 324 325 326 326 326 325 325 325 325 323 322 321 319 317 315 314 313 312 312 311 310 309 308 308 308 308 307 307 307 307 307 307 307 306 305 303 302 301 301 300 300 302 297 295 296 299 297 300 300 299 299 299 300 300 299 299 297 296 297 298 300 301 303 306 309 312 314 315 314 314 313 314 314 312 313 312 314 314 314 313 312 312 312 311
322 323 324 324 324 325 325 325 324 323 323 321 320 320 318 317 315 315 314 314 312 310 309 308 307 307 307 307 306 307 307 308 308 307 307 306 305 304 302 298 298 300 299 302 301 296 300 299 297 298 299 299 299 298 298 298 297 297 295 296 297 297 299 302 304 307 309 311 313 314 313 313 313 314 313 311 311 311 313 313 312 313 312 311 311
323 323 324 323 322 322 322 322 323 323 323 321 319 318 318 316 315 314 313 313 311 310 309 308 307 307 307 307 306 306 307 307 307 306 306 306 305 305 304 301 297 295 298 298 299 300 304 301 298 297 298 298 298 298 297 297 297 296 294 296 296 297 298 300 303 305 307 308 310 311 313 313 313 312 312 311 311 310 310 309 309 309 308 308 308
322 322 322 322 321 320 319 319 320 320 321 321 320 318 317 316 315 314 312 312 311 310 309 308 308 307 307 306 306 306 306 306 306 306 306 305 305 304 304 302 301 296 295 294 297 298 300 300 299 298 297 297 296 297 296 296 295 295 296 295 295 296 297 299 302 305 306 308 308 310 311 312 311 312 310 310 310 310 310 309 309 307 308 308 309
320 321 319 318 319 317 318 317 317 318 318 318 318 318 317 315 315 314 314 313 311 310 310 309 308 307 307 306 306 305 306 305 305 305 304 304 303 303 303 302 302 298 296 294 295 299 299 300 299 299 295 297 297 296 295 295 294 294 294 294 294 294 296 297 300 302 303 306 307 309 310 310 311 311 310 309 309 309 310 309 308 308 308 307 309
318 317 316 315 315 315 315 315 315 315 316 316 316 315 316 315 314 312 313 313 311 310 310 309 309 308 307 306 306 305 306 305 305 304 304 304 303 302 302 302 300 300 298 296 293 297 301 299 299 299 297 295 296 295 295 295 295 294 293 293 293 294 294 294 297 298 300 302 303 305 308 309 310 310 310 309 309 309 310 309 309 308 308 307 307
316 316 315 314 314 313 313 313 313 313 313 313 313 313 313 312 312 311 312 311 309 309 309 309 309 308 307 306 306 306 306 305 304 304 303 303 303 302 301 301 300 299 299 297 294 294 299 300 301 301 299 295 295 294 294 294 294 293 293 293 292 292 292 292 293 295 297 299 301 303 305 307 309 309 309 308 309 309 309 308 308 308 307 307 306
313 313 312 312 312 311 311 311 311 311 310 311 311 311 311 310 310 310 310 310 309 308 308 308 309 308 307 306 306 306 306 304 303 303 302 303 302 301 300 300 299 299 298 296 294 294 297 300 300 299 301 299 295 294 293 293 293 293 292 292 292 291 291 290 290 292 294 296 297 299 301 303 305 306 307 308 308 308 308 308 308 306 305 305 305
311 311 310 311 310 310 309 309 309 309 309 309 309 309 309 309 309 310 309 309 308 308 308 307 307 307 307 306 305 305 305 304 303 303 302 301 301 300 300 299 298 298 298 296 295 294 294 297 297 300 299 300 298 296 293 294 293 292 291 291 291 291 290 290 289 289 292 294 295 296 298 300 301 303 304 305 307 307 308 307 305 304 304 303 303
309 309 308 308 308 308 308 308 307 307 307 307 308 308 307 307 307 307 308 307 307 306 306 307 307 307 306 304 304 304 305 303 302 302 302 302 301 301 300 299 298 298 298 298 296 294 294 295 298 297 298 298 297 297 294 293 294 294 292 291 290 289 289 289 288 289 291 293 294 295 296 297 298 299 301 302 303 303 303 303 303 303 303 302 302
306 307 307 306 306 306 306 306 305 305 305 305 305 306 305 305 305 305 305 305 305 305 305 306 306 305 304 303 303 302 300 299 301 302 302 302 301 300 299 299 299 298 298 297 297 295 295 294 296 296 297 297 297 298 297 294 291 291 291 291 290 289 289 288 288 287 289 292 293 294 295 295 296 297 298 299 301 301 302 302 302 302 302 301 300
305 305 305 305 304 304 304 303 303 303 304 304 303 303 303 304 303 303 303 303 303 304 304 304 300 303 302 302 301 300 299 298 298 298 300 298 300 299 299 299 298 298 298 297 296 296 294 293 294 296 297 297 297 297 296 291 290 288 289 289 289 288 288 288 288 288 289 290 291 292 293 294 295 296 297 298 298 299 300 301 302 301 300 300 299
302 303 302 302 302 302 302 302 302 302 302 302 302 302 302 302 302 302 302 302 302 302 302 302 303 302 302 301 301 300 299 298 297 297 298 297 297 298 297 298 298 298 297 297 296 295 294 294 294 294 296 295 295 296 296 292 291 290 289 287 287 287 286 286 286 286 286 286 286 288 290 291 292 294 295 296 297 298 299 300 300 300 298 298 298
300 300 301 301 301 301 301 301 301 301 301 300 300 300 301 301 301 300 300 300 300 301 301 301 301 301 301 300 300 300 299 299 298 298 297 297 297 296 296 297 297 297 296 296 295 294 294 293 294 294 294 295 294 293 294 292 292 291 290 290 288 287 285 285 285 286 286 286 287 288 288 288 289 290 292 294 296 297 298 299 299 299 297 297 297
299 299 299 299 299 300 300 300 300 301 300 300 300 300 300 300 300 300 300 299 299 299 299 299 300 299 299 299 299 299 299 299 299 299 298 297 297 296 297 296 296 295 295 295 294 293 293 292 292 292 293 293 294 293 293 288 286 286 287 287 287 289 286 285 285 285 286 285 284 285 287 288 288 289 291 292 293 295 296 296 297 297 296 296 296
299 298 298 298 297 298 298 299 299 300 300 299 299 299 299 299 300 299 299 299 299 298 298 297 298 298 298 299 299 299 298 294 294 294 296 296 298 296 296 296 295 295 294 294 294 293 293 292 292 293 292 292 293 292 292 291 288 288 289 287 286 288 288 288 287 285 285 284 284 283 283 284 284 285 286 286 288 291 292 294 295 294 295 296 296
297 297 297 297 297 297 297 297 298 299 299 299 296 294 294 296 297 297 297 297 297 296 295 295 296 296 297 298 298 293 292 291 291 292 293 293 294 296 297 296 295 294 293 293 293 293 292 291 292 292 291 291 292 292 292 293 293 291 288 287 286 287 287 286 287 286 284 284 283 282 283 284 283 283 284 285 287 288 290 291 292 293 294 296 296
296 296 296 296 296 296 296 296 296 298 299 299 294 295 295 294 294 295 295 295 296 296 295 295 294 295 296 296 297 295 293 291 292 291 292 293 293 293 293 293 294 295 293 292 292 292 291 291 292 291 291 291 293 294 293 293 293 291 289 288 287 286 285 284 283 286 284 284 282 282 282 284 283 281 283 284 285 287 289 290 293 294 295 296 295
294 294 294 295 296 296 297 296 296 297 297 294 295 295 294 294 293 294 294 295 295 295 295 295 295 295 295 296 296 297 296 295 295 295 293 292 292 292 292 293 293 293 294 293 292 292 291 291 291 291 291 291 292 293 293 293 292 291 289 288 287 286 285 285 285 285 285 283 281 281 281 283 283 282 281 283 285 286 287 290 293 294 295 295 295
293 293 294 294 294 295 295 295 295 295 295 294 294 294 294 294 294 293 294 294 294 294 295 295 295 295 295 295 295 296 297 291 291 294 295 295 292 292 291 291 292 292 294 294 294 293 293 292 291 291 292 293 292 293 294 293 292 290 290 287 286 286 286 286 286 287 287 283 282 280 280 282 282 281 281 282 284 285 286 290 292 293 294 294 294
292 292 292 292 293 293 293 293 293 294 294 293 293 293 293 293 293 293 293 293 294 294 294 295 295 295 295 295 294 295 296 296 295 295 295 295 295 294 293 293 292 291 291 292 292 292 292 292 292 291 293 294 292 293 293 293 291 290 290 289 288 287 286 286 287 288 287 283 281 280 279 281 282 281 280 282 284 284 285 288 291 292 293 293 293
290 290 290 290 291 291 291 292 292 291 293 292 293 293 292 293 293 292 293 293 293 294 295 295 295 295 295 296 295 295 295 295 296 295 295 295 294 293 292 292 293 293 294 293 293 292 292 293 293 293 294 294 295 295 295 295 293 292 291 290 290 289 288 288 287 287 285 283 283 281 279 283 282 280 280 282 283 284 285 288 290 291 292 292 292
288 289 289 289 290 289 290 290 290 290 291 292 292 292 292 292 293 292 292 292 292 293 293 294 295 295 295 295 295 295 295 295 294 294 293 294 293 291 290 290 292 292 293 293 293 293 294 294 294 294 295 295 295 294 293 293 293 292 291 290 289 288 287 285 284 286 285 284 283 281 280 282 282 280 280 282 283 282 284 284 288 290 291 292 292
287 288 287 288 288 289 288 289 289 289 289 290 291 291 291 291 291 290 291 291 291 291 292 293 293 294 294 295 295 295 295 295 294 295 295 292 291 290 290 289 290 290 290 293 293 293 293 293 294 294 295 295 295 296 296 296 293 293 291 289 288 289 285 283 284 285 285 285 281 282 281 280 282 280 280 281 281 281 282 283 284 288 290 291 291
286 287 287 287 288 288 287 287 288 287 288 288 289 290 290 291 290 289 289 289 289 290 290 292 292 293 293 290 290 293 293 293 293 294 294 292 290 290 289 289 288 289 289 291 291 291 292 292 292 293 293 294 294 295 295 295 295 294 291 288 289 289 286 285 283 285 286 285 283 283 280 280 281 281 278 279 279 281 281 282 283 284 288 289 290
286 287 287 286 286 287 287 287 286 287 287 287 289 290 290 290 290 289 289 288 288 288 289 290 291 291 292 290 289 290 291 291 293 293 293 292 290 290 289 288 288 288 289 289 289 289 289 289 289 289 289 290 290 291 291 292 292 291 291 290 290 288 286 286 285 285 283 285 283 283 279 279 279 279 278 275 275 278 279 280 281 282 283 285 286
Wind_Speed
5 5 5 4 4 4 3 3 3 3 3 3 4 4 4 3 3 3 3 3 3 3 3 4 4 4 3 4 4 4 3 3 3 3 2 3 4 6 5 6 3 6 8 9 9 10 9 9 8 7 7 8 8 6 6 5 3 3 10 7 7 7 8 8 7 7 7 7 8 7 6 7 7 5 6 10 9 8 8 8 8 8 8 8 8
5 5 5 5 4 4 4 3 3 3 4 4 4 4 4 3 4 3 3 3 3 4 3 4 5 5 5 5 5 5 3 3 3 3 4 3 4 7 9 5 6 8 9 8 8 9 10 9 8 9 8 6 9 9 6 7 7 5 5 10 7 7 7 7 8 8 7 7 7 7 5 5 8 8 5 5 9 8 8 7 7 8 7 7 7
5 5 5 5 5 4 4 4 4 3 3 4 3 4 3 4 4 4 4 4 4 3 4 4 4 4 4 5 5 5 4 4 4 4 4 3 3 4 6 4 5 6 6 9 10 10 11 11 10 9 9 8 7 10 12 10 10 8 6 6 9 7 7 7 7 7 8 8 8 7 6 6 6 6 6 5 5 8 7 7 6 6 7 6 6
6 6 5 5 5 5 4 4 4 3 3 3 3 4 3 3 2 3 3 3 4 3 4 4 4 5 5 6 6 6 5 4 4 4 5 4 4 4 5 5 4 6 8 8 10 11 10 10 10 11 10 11 10 8 8 8 8 8 8 7 6 8 8 8 8 8 8 8 8 6 6 7 7 6 6 6 5 4 7 6 6 6 6 4 5
6 7 6 5 5 5 5 4 4 4 4 3 3 3 3 3 3 2 3 3 4 4 4 4 5 5 6 6 6 6 5 4 5 5 5 5 5 4 5 7 7 5 8 8 9 12 12 11 11 12 12 13 10 9 10 9 10 10 10 10 9 9 9 8 8 8 8 9 8 7 8 7 7 7 7 7 5 3 7 6 5 4 6 5 3
7 7 7 6 5 5 5 5 4 4 4 4 4 4 4 5 4 4 5 5 5 5 4 5 5 5 4 5 6 7 7 7 6 6 5 4 5 7 6 5 6 6 5 7 8 8 11 12 13 13 13 14 13 12 11 11 11 11 10 11 11 11 11 10 10 10 10 9 8 10 10 9 9 8 8 7 7 6 5 7 6 4 5 5 4
8 7 8 7 6 6 6 5 5 5 4 5 5 5 5 5 5 5 5 5 6 5 5 5 6 6 5 5 6 6 6 7 7 7 7 6 7 5 5 4 5 5 6 6 8 9 10 11 14 13 14 14 14 13 12 13 13 13 12 13 13 12 12 13 13 12 11 11 11 11 11 11 10 10 9 9 8 8 8 8 6 7 6 6 5
9 8 8 6 6 6 6 5 6 5 5 5 5 5 5 5 6 6 6 6 6 6 5 6 6 6 5 5 5 5 5 6 6 6 5 6 6 6 5 5 5 5 5 6 7 9 11 10 9 13 15 15 15 13 14 15 14 14 14 14 14 14 14 14 14 14 14 14 13 13 13 12 12 11 11 11 10 9 9 7 9 8 7 7 6
9 9 7 6 6 5 5 6 7 6 5 5 6 6 6 5 6 7 7 6 6 7 6 6 6 6 6 6 5 4 5 5 6 5 4 4 5 5 5 5 4 1 2 4 6 6 12 14 9 9 13 14 16 16 16 15 16 16 16 15 15 15 15 15 14 14 14 13 13 14 13 14 14 13 12 12 11 11 10 8 9 9 7 8 8
10 9 7 7 7 7 6 6 6 6 6 6 6 6 6 7 7 7 7 7 7 7 8 7 6 5 6 6 5 4 4 5 4 3 3 5 5 4 5 4 4 4 4 5 5 5 4 11 13 10 11 10 15 18 17 18 17 18 17 19 19 16 16 15 15 15 14 14 15 14 15 15 14 15 14 13 13 13 11 11 10 11 9 9 9
10 10 8 7 7 6 6 7 6 6 6 6 6 7 7 7 8 7 7 8 7 6 7 6 6 5 5 6 5 5 4 3 2 3 4 4 4 4 1 2 1 1 3 4 4 4 4 4 7 7 8 12 11 17 18 20 18 20 20 19 18 21 18 16 17 17 18 16 16 16 15 16 16 15 15 15 14 14 13 13 12 13 11 10 9
11 10 9 8 7 7 8 7 7 7 7 7 7 7 8 8 8 8 7 7 7 6 5 6 5 6 6 5 5 4 4 3 3 4 4 4 4 3 3 2 2 2 4 4 4 5 5 5 5 6 7 9 12 12 14 16 16 20 21 20 20 20 19 19 19 19 16 15 18 17 18 18 17 17 17 16 15 17 16 14 13 13 12 11 11
10 10 9 9 8 8 8 8 8 8 7 8 9 8 8 8 7 7 8 7 6 6 4 3 4 5 5 5 5 5 5 4 6 6 6 5 4 4 3 3 4 5 6 4 5 5 6 6 6 5 6 6 9 13 14 14 15 20 21 21 21 22 21 19 19 19 18 19 20 18 19 19 19 20 19 18 17 16 17 17 15 15 13 13 12
11 10 9 8 8 8 9 8 8 7 7 6 6 6 7 8 6 6 6 7 6 6 5 4 6 7 5 4 5 5 6 6 7 8 7 5 6 5 5 5 6 5 5 6 6 6 6 6 6 7 6 7 6 8 10 11 12 14 21 23 23 23 22 22 21 20 21 22 21 18 20 21 21 21 20 19 19 18 18 19 17 16 15 15 14
8 7 6 8 9 9 8 8 8 6 5 6 7 8 8 8 8 6 4 4 6 5 8 8 6 4 1 3 5 4 3 3 8 11 10 9 8 9 9 8 8 5 5 4 5 7 7 6 7 8 9 8 7 7 9 11 12 14 15 19 22 24 24 24 23 22 23 20 21 21 22 22 22 22 20 20 20 19 19 19 19 17 17 16 16
7 8 7 9 10 9 8 7 7 7 7 8 9 9 8 8 8 9 8 6 6 8 7 7 7 4 3 6 1 1 8 8 7 6 10 12 11 12 10 10 8 7 5 7 7 7 8 8 9 9 9 9 9 8 8 9 14 15 16 17 19 23 25 25 24 24 23 21 23 22 22 23 22 22 21 23 21 20 21 20 19 18 17 17 17
10 11 10 10 9 8 7 7 7 8 8 9 9 10 9 7 8 8 9 10 8 5 3 5 8 7 5 3 1 2 7 7 5 6 6 6 11 13 11 13 10 9 9 9 11 9 10 9 9 9 9 9 9 9 8 9 10 11 14 16 18 20 22 25 26 26 27 24 22 22 23 22 23 23 23 23 23 22 23 22 20 21 19 19 18
12 13 11 9 8 8 7 8 8 7 8 9 7 5 6 8 9 8 9 9 8 3 3 5 7 8 9 7 6 6 5 0 1 6 4 4 4 8 11 12 11 11 11 11 12 11 9 10 10 10 10 9 9 8 9 10 10 10 11 13 16 18 18 22 27 27 27 26 25 24 23 24 25 24 24 23 23 23 23 22 21 22 21 19 19
7 6 6 8 8 8 8 8 7 6 5 4 5 6 5 7 6 7 8 7 5 8 9 6 2 7 7 8 8 1 1 2 9 6 10 1 4 5 7 10 10 11 13 13 12 10 11 10 11 11 10 9 10 10 9 10 13 14 17 16 19 20 19 18 21 26 28 27 26 25 27 27 26 26 26 25 24 24 24 23 23 23 23 22 20
8 8 9 9 9 8 8 7 7 7 5 4 6 6 5 5 7 7 6 5 8 9 10 8 8 6 7 10 10 9 4 2 1 6 5 9 9 3 5 6 7 10 13 13 12 12 12 11 13 13 12 11 10 10 10 11 11 12 13 18 21 22 21 22 21 23 26 28 29 28 28 28 28 27 26 27 27 25 25 24 25 25 24 23 22
8 8 9 9 9 9 8 8 8 7 7 6 7 8 10 9 8 8 8 9 9 10 9 10 7 8 5 6 6 9 8 7 4 5 7 8 13 10 13 5 6 8 10 11 11 11 12 14 14 13 11 11 11 11 11 11 11 12 10 16 21 24 25 25 24 22 26 27 28 28 29 29 28 28 27 27 27 28 28 27 27 26 25 24 24
7 8 7 7 7 8 8 9 9 8 8 8 7 7 8 9 9 9 10 10 9 9 11 10 8 8 8 6 6 6 6 8 9 8 8 10 14 12 10 12 13 9 8 9 10 13 12 11 12 12 12 11 11 12 12 12 11 11 14 19 20 23 26 26 26 26 26 24 23 24 28 30 31 28 29 28 29 28 28 29 27 26 26 26 25
6 6 8 7 6 7 8 8 8 7 7 8 8 8 8 10 11 10 10 11 9 10 11 11 9 9 8 7 9 9 11 12 13 10 12 10 9 12 13 12 15 16 11 11 12 13 12 11 13 13 13 12 12 11 11 13 14 15 18 19 18 22 23 26 27 28 28 27 25 25 25 28 30 31 30 30 29 29 29 28 28 28 27 27 27
5 5 6 4 3 4 6 7 8 7 8 7 7 7 7 8 9 9 9 10 10 10 8 8 10 9 11 7 9 10 10 9 6 7 8 11 11 14 12 10 9 10 6 4 7 10 11 12 13 14 13 12 12 12 12 13 13 20 18 20 18 21 24 26 27 26 28 28 28 27 29 29 28 29 30 31 29 30 30 29 28 29 28 28 28
5 7 6 5 5 5 5 4 5 6 6 6 8 9 8 9 9 10 10 10 10 12 11 12 12 12 12 10 9 9 11 9 8 9 9 9 9 12 13 8 13 12 8 3 6 4 10 11 12 12 12 12 12 12 12 13 12 16 21 18 20 20 22 23 25 27 27 29 31 30 30 34 32 32 35 35 34 31 30 30 29 29 28 28 27
5 5 5 6 6 6 6 6 6 5 6 7 7 8 9 9 11 11 11 10 9 12 12 12 11 11 9 9 10 10 11 10 10 9 11 10 10 12 12 9 8 14 9 5 2 5 8 9 10 10 11 13 13 13 12 13 14 19 23 19 19 21 18 20 25 26 27 27 31 32 29 29 33 31 32 36 39 34 33 31 32 30 30 29 28
6 5 5 6 7 6 6 6 6 6 6 5 5 6 7 8 8 9 9 7 7 8 9 9 10 11 11 11 10 10 10 9 9 10 9 10 10 9 8 13 13 11 13 10 8 12 13 7 10 10 12 12 12 14 15 13 17 22 21 17 14 20 24 24 25 27 27 29 28 29 32 31 31 33 33 34 35 33 35 35 36 33 30 29 28
6 6 6 5 5 7 7 7 7 7 6 6 5 5 6 7 7 7 9 5 8 9 9 9 12 13 12 11 10 11 9 9 9 9 9 9 9 9 10 10 12 18 11 13 11 13 8 11 6 12 11 11 12 12 14 18 14 20 21 14 13 15 21 23 26 28 29 29 28 28 29 31 29 31 31 32 30 28 28 32 33 33 29 28 28
5 4 5 5 5 7 8 8 8 8 8 7 7 5 5 6 7 7 8 6 8 9 9 10 10 10 10 12 11 10 10 9 9 9 9 8 8 8 8 10 10 12 16 14 18 11 8 9 10 5 12 11 10 9 11 11 14 16 13 13 15 14 17 23 28 28 31 30 29 29 30 30 34 29 31 31 32 30 30 30 31 31 30 30 31
4 3 4 6 6 6 7 8 8 8 9 8 7 5 6 5 6 7 7 7 8 8 8 9 9 8 9 9 9 10 10 9 9 8 8 8 8 8 8 9 8 12 12 14 21 9 10 5 8 6 5 10 8 9 9 11 14 18 14 14 14 14 20 24 25 28 29 33 30 30 32 31 32 30 29 32 33 33 30 31 33 32 32 32 31
4 4 4 5 5 5 6 7 7 7 7 7 6 5 5 4 4 5 6 7 8 9 8 8 8 8 9 11 10 10 9 9 9 9 9 9 9 8 8 7 8 10 12 12 15 19 5 12 3 4 5 7 8 9 8 9 12 16 13 12 13 18 22 20 22 23 25 28 29 30 31 34 35 34 31 30 33 32 31 31 33 34 33 32 36
3 3 4 5 5 6 5 5 5 5 6 5 5 5 4 4 5 6 7 7 8 9 8 7 7 7 9 10 10 10 9 8 9 9 9 9 9 8 8 8 9 9 10 12 14 25 7 9 10 8 5 6 8 9 9 8 9 13 10 11 14 17 14 12 19 23 24 26 27 29 30 31 34 35 37 33 32 32 29 30 35 34 34 35 36
2 4 5 5 5 5 5 5 5 4 5 5 4 5 5 5 5 6 7 8 8 7 7 9 8 8 8 9 10 10 8 9 8 8 8 9 9 9 8 8 9 9 10 12 16 20 19 7 12 10 9 7 8 8 11 9 9 9 11 11 11 11 11 12 13 19 22 23 25 25 27 31 31 33 33 34 35 35 31 30 32 33 33 31 31
3 4 4 3 3 4 4 4 4 4 5 5 5 5 5 5 6 5 6 8 9 8 7 9 8 8 9 10 11 10 8 9 9 10 8 7 8 8 9 8 10 9 9 11 14 15 23 13 8 9 10 8 13 6 11 11 11 8 10 10 9 10 11 11 11 11 18 23 25 26 28 28 29 31 33 34 35 38 37 33 30 30 28 31 31
2 2 2 2 3 3 4 4 4 4 5 5 5 5 6 6 7 7 7 8 9 9 9 9 8 7 8 8 9 8 6 8 8 8 7 8 7 9 10 9 11 11 11 13 13 16 19 20 12 10 10 8 11 10 8 9 10 9 11 11 11 10 10 11 11 10 14 22 24 26 27 28 30 31 33 34 31 31 30 30 29 27 26 26 27
2 2 2 2 3 3 4 4 4 5 5 5 5 5 6 6 7 9 9 9 9 9 9 9 8 8 7 8 8 6 6 8 9 9 9 9 9 9 11 10 11 12 11 11 13 14 15 17 19 9 10 9 11 10 9 7 7 8 9 10 8 10 10 10 11 11 10 18 23 25 27 28 30 31 31 33 32 34 30 31 28 26 25 25 26
2 2 2 1 2 3 3 3 4 4 5 5 6 6 6 6 7 8 9 9 9 9 9 9 8 8 9 9 9 7 8 10 11 10 10 10 10 10 11 10 11 11 10 11 12 13 14 18 19 13 9 11 11 10 7 7 6 7 7 10 9 10 11 9 8 9 11 19 22 23 24 27 29 29 31 31 31 34 33 30 25 24 26 26 27
2 2 2 3 2 3 3 3 3 4 4 5 6 6 7 8 8 8 8 9 9 9 10 10 9 9 9 10 9 9 9 11 11 10 10 11 10 11 11 11 11 10 11 11 11 12 14 17 16 18 12 11 13 12 8 7 9 9 8 8 9 9 6 8 10 9 8 8 10 12 18 22 26 30 30 32 32 33 30 29 28 28 27 27 27
3 3 3 3 3 3 4 4 4 4 4 4 5 6 7 8 9 9 9 9 10 9 9 9 9 9 9 9 10 9 11 11 11 11 10 10 10 11 11 12 12 11 12 11 10 12 13 14 16 15 15 13 10 14 9 7 11 10 12 10 10 7 8 10 12 9 9 10 13 16 17 17 17 16 24 30 31 34 31 31 31 30 28 27 25
4 4 4 4 3 3 4 4 4 4 4 5 5 6 7 8 8 7 8 9 9 9 9 9 9 9 10 11 11 11 12 11 11 11 10 11 9 11 10 9 11 11 12 11 10 11 12 13 14 15 12 14 12 9 7 3 4 6 6 7 14 12 7 9 13 11 9 9 11 11 14 14 15 20 24 26 30 32 30 28 29 27 28 26 27
3 4 4 4 3 4 3 3 3 3 4 4 4 4 5 6 6 7 8 9 9 9 9 10 10 10 11 11 11 12 13 15 17 15 15 13 11 11 11 9 11 11 12 11 11 11 11 12 14 13 13 14 14 11 10 10 10 12 7 9 12 12 8 10 10 10 9 9 9 10 11 11 12 12 12 12 15 22 25 28 23 25 24 25 22
3 3 2 2 2 3 3 3 3 3 4 4 6 10 9 8 7 7 7 9 9 9 9 10 10 10 11 11 12 16 16 17 17 19 19 20 20 17 15 10 11 11 10 11 11 10 10 12 14 13 13 16 16 12 12 14 10 8 9 8 12 12 8 11 12 8 8 10 10 12 12 10 11 13 11 12 13 14 13 14 15 17 21 25 24
2 2 2 3 2 2 3 4 4 4 5 5 8 10 11 12 9 8 8 9 9 9 9 10 11 11 11 11 12 13 13 14 16 19 19 21 21 23 25 23 19 15 12 13 13 11 10 12 13 13 14 17 19 14 12 12 9 10 10 10 11 9 10 11 15 6 9 12 13 12 13 10 11 13 12 13 12 11 11 13 23 24 25 27 28
3 3 3 3 3 3 4 4 5 5 6 8 10 10 11 11 10 8 8 8 9 9 9 10 10 10 11 11 10 9 10 11 11 11 15 19 22 23 24 23 23 24 23 18 16 13 12 11 13 15 14 16 17 13 13 10 10 8 9 9 10 11 11 12 13 14 6 13 11 12 13 6 10 12 12 13 11 11 13 14 19 22 23 25 28
4 3 4 5 4 4 4 5 6 6 7 9 10 10 10 11 12 9 8 9 9 10 10 11 11 12 11 11 11 9 9 13 12 12 12 14 17 21 22 23 24 24 24 26 26 20 13 13 15 17 17 15 14 16 11 9 6 11 8 8 9 10 12 13 14 12 7 12 9 9 12 10 10 12 13 12 9 11 12 16 20 23 27 25 26
4 4 4 5 5 5 5 6 7 7 7 10 13 13 12 13 12 10 8 10 10 11 11 11 11 12 13 12 12 12 10 9 10 11 12 13 13 12 13 12 13 17 21 25 25 25 21 17 16 19 20 15 14 15 13 8 8 11 10 11 9 11 13 15 16 15 5 10 12 8 9 9 8 9 14 10 9 11 11 14 22 26 25 26 27
5 5 5 6 6 6 7 6 7 8 7 11 14 14 13 14 15 11 8 9 10 10 11 11 12 13 13 12 12 13 13 12 10 11 11 12 11 12 13 13 13 13 13 13 13 13 14 15 17 19 20 19 17 17 15 13 13 12 11 12 12 13 13 9 10 11 4 8 9 8 13 8 8 11 13 9 9 10 10 14 24 27 28 27 28
3 3 4 4 7 6 7 8 8 9 8 10 13 15 15 14 15 10 9 9 10 11 12 12 12 12 12 11 11 13 13 13 14 15 14 12 11 13 14 14 14 14 14 14 14 14 15 16 15 17 17 19 19 17 15 13 12 11 9 9 9 10 8 10 14 10 9 7 10 11 10 8 7 11 11 6 7 10 10 9 19 29 29 29 28
4 5 5 5 5 7 7 8 9 11 11 10 12 15 16 17 13 9 10 10 11 12 12 13 12 12 12 11 11 12 13 14 14 14 15 14 11 14 15 15 15 14 15 12 13 19 23 24 25 26 27 27 28 28 27 27 20 13 10 11 13 10 8 13 15 12 11 7 9 11 9 11 7 8 9 5 8 10 10 10 9 22 29 30 31
6 5 6 6 5 5 6 9 9 11 13 13 13 14 16 15 12 10 10 9 11 12 13 14 13 12 13 17 15 13 14 16 18 18 18 14 12 14 15 15 17 17 16 11 7 11 18 21 24 27 27 27 28 29 29 27 26 19 13 15 13 9 11 11 14 14 10 7 9 11 8 12 4 6 6 2 4 7 8 8 9 11 23 26 30
6 5 5 7 7 6 6 8 11 12 11 13 13 12 14 14 11 8 9 9 11 12 12 14 13 12 12 12 16 15 14 17 21 20 20 16 13 13 14 14 16 18 16 10 10 12 11 11 12 14 16 19 19 17 17 24 24 21 16 15 12 12 13 12 12 11 10 10 7 13 10 8 6 6 7 3 5 5 4 7 8 9 10 10 13
Wind_Direction
188 184 187 189 178 188 186 193 194 189 182 197 190 201 207 206 197 203 208 215 206 216 227 233 232 236 243 228 234 232 228 221 222 229 227 172 166 175 231 286 211 186 176 170 170 168 165 170 165 163 161 163 157 148 154 159 205 221 147 158 160 155 154 153 159 156 156 152 149 150 140 138 122 95 125 134 129 126 118 120 114 113 111 106 100
195 198 187 186 180 183 197 199 196 191 192 204 196 203 204 203 207 204 206 214 221 216 220 226 240 239 234 233 230 235 227 242 231 233 228 206 198 153 180 242 234 208 197 196 178 172 171 169 177 177 184 175 155 163 166 173 178 212 190 159 175 169 171 170 167 170 166 167 163 162 158 146 141 147 138 140 137 137 132 126 125 117 115 115 109
209 203 192 184 186 185 200 193 203 196 200 207 197 209 214 213 205 209 206 214 220 210 220 229 231 249 243 240 232 237 228 224 229 223 237 227 224 154 169 196 272 283 275 198 191 186 188 183 181 182 181 175 191 167 163 171 180 189 206 198 171 186 183 182 181 180 178 177 177 180 158 161 161 155 146 158 149 142 146 136 136 132 122 126 120
217 211 211 187 191 193 198 197 205 197 200 204 194 209 217 225 210 234 233 223 223 214 220 234 227 231 235 243 238 234 234 235 237 219 233 241 229 212 186 202 232 263 269 210 204 200 202 192 187 187 185 186 190 205 190 190 188 189 194 215 199 190 196 196 195 193 191 190 190 184 185 181 178 168 164 157 172 173 148 154 150 148 128 119 130
214 216 214 194 196 190 195 196 208 192 200 191 196 204 215 207 203 211 224 233 232 225 219 238 236 227 233 225 239 239 238 223 231 229 228 234 235 222 199 191 207 220 252 228 223 213 213 205 198 198 191 196 197 205 201 200 202 199 197 201 202 202 203 205 206 207 204 208 205 195 197 200 198 184 180 181 171 220 162 169 170 171 157 153 147
219 213 215 206 195 191 194 194 200 183 191 175 194 205 217 217 216 204 222 228 226 227 220 228 232 235 235 225 231 232 235 235 236 236 232 229 229 233 230 207 195 199 212 233 250 254 237 212 209 206 200 204 212 204 209 201 206 206 207 205 204 205 206 207 210 212 214 220 208 212 209 202 205 200 194 189 191 200 211 165 183 185 172 170 169
221 223 217 215 195 195 195 193 186 180 191 196 203 208 216 219 213 219 218 221 234 230 229 233 230 226 220 215 216 229 236 234 230 236 234 231 229 225 221 240 228 212 192 211 231 249 247 225 215 213 208 210 220 219 199 205 204 209 212 210 210 208 209 210 208 216 213 215 216 217 218 215 215 212 204 204 210 197 225 174 201 188 179 197 187
223 225 219 208 198 199 197 190 173 182 203 201 207 211 210 215 216 217 222 222 228 228 223 231 231 228 223 221 222 216 219 225 228 223 212 213 214 218 218 220 223 232 226 208 212 217 230 241 240 218 214 221 224 226 210 207 211 215 217 218 215 213 214 215 214 215 214 214 213 219 219 223 222 219 216 209 211 211 221 190 205 185 188 202 212
220 217 213 204 207 205 204 192 167 185 201 204 206 212 209 209 214 210 221 224 219 226 223 225 226 224 218 216 219 217 227 229 231 225 208 212 215 216 220 222 221 211 239 229 237 217 202 222 241 258 237 223 225 227 222 217 213 214 219 221 220 218 218 219 220 222 221 220 220 222 223 222 226 226 223 219 215 217 218 220 192 239 195 205 202
205 207 212 209 204 202 205 188 175 187 198 205 211 214 216 210 215 210 213 221 225 220 221 222 223 220 217 212 214 216 225 233 243 250 236 221 223 221 221 223 220 215 221 228 244 252 226 203 224 240 261 253 226 228 217 217 223 221 220 217 217 225 224 221 224 224 228 227 229 231 228 230 230 229 227 226 223 226 217 230 203 219 217 208 208
204 203 209 207 204 199 197 185 185 193 194 199 210 215 219 217 220 217 215 223 232 227 227 224 223 216 222 220 215 218 223 224 253 246 249 257 249 238 225 231 232 238 244 236 233 248 249 230 214 223 237 239 244 229 222 224 222 224 226 224 221 213 214 220 224 224 223 226 230 233 235 235 234 236 231 231 228 229 227 222 232 200 237 212 209
205 204 205 207 209 207 206 197 195 195 191 194 208 212 214 217 221 227 223 224 232 242 235 230 228 231 227 229 222 217 218 218 228 235 237 239 247 256 244 238 251 250 247 258 252 235 235 237 234 226 229 230 228 240 233 232 228 228 230 229 224 227 233 222 221 234 241 228 224 226 231 235 234 234 233 234 231 231 236 227 238 215 226 227 216
207 199 202 205 210 212 208 202 194 199 198 205 205 209 209 213 217 218 226 222 219 219 228 222 244 252 231 233 240 228 226 210 233 237 228 232 238 240 240 244 239 235 236 243 255 252 239 232 233 236 233 229 225 229 239 242 236 231 233 233 231 229 228 232 226 225 230 228 229 224 228 233 233 232 236 235 234 230 236 234 224 239 226 232 229
216 201 195 199 205 212 209 199 191 199 207 210 209 208 208 208 206 218 220 225 230 200 204 165 233 236 249 248 234 225 210 199 218 234 217 200 219 226 231 229 233 231 229 239 242 249 254 245 233 232 238 241 229 220 227 239 242 241 235 234 235 233 232 230 231 227 223 226 235 231 229 230 231 231 233 238 236 232 231 241 235 233 235 231 231
192 188 191 201 207 209 206 199 189 185 190 211 218 212 204 198 194 207 208 220 244 219 202 187 231 221 213 16 280 290 208 232 235 233 222 220 214 226 229 237 237 224 230 226 230 238 240 246 246 233 230 230 238 226 221 226 228 231 239 240 236 235 234 235 236 232 234 237 234 233 232 233 232 232 233 235 237 235 233 233 244 236 236 236 233
187 189 206 212 211 208 206 196 193 191 198 208 209 203 193 193 195 206 210 230 217 227 196 194 212 159 237 220 274 22 300 260 243 223 211 218 215 227 221 227 226 220 205 227 227 224 234 232 235 240 240 237 235 238 230 223 224 228 232 238 233 231 233 235 236 235 238 229 234 236 234 234 232 232 232 237 236 234 238 232 236 237 236 237 233
213 209 205 211 204 203 206 208 206 202 204 211 210 207 201 189 191 203 209 220 230 209 168 203 218 222 221 109 204 262 236 276 327 268 166 205 224 226 224 226 218 216 222 224 229 227 231 234 233 233 235 238 242 241 243 238 229 225 230 233 235 231 232 236 239 239 242 236 227 229 232 233 233 234 232 232 234 234 236 238 233 239 234 234 234
207 214 207 201 201 206 207 215 213 208 203 210 214 197 194 211 205 210 220 224 238 230 210 204 223 229 245 243 249 255 266 232 80 288 102 223 227 219 227 228 227 228 229 235 231 231 224 232 236 237 236 234 234 238 236 237 235 230 227 230 229 232 229 233 239 242 245 246 235 233 227 228 233 234 234 235 234 235 236 239 234 236 239 233 233
201 191 190 200 211 214 210 211 213 207 194 193 209 216 221 220 208 206 216 220 209 240 240 223 175 239 234 245 256 223 54 244 259 302 289 196 230 235 220 223 223 227 238 236 233 229 228 230 238 242 238 233 233 233 235 236 237 237 232 231 230 228 228 229 236 241 245 246 240 234 234 228 228 232 233 233 235 236 237 236 235 236 237 233 231
201 196 196 200 210 216 220 221 217 220 205 196 211 209 205 209 203 206 203 195 213 224 236 223 199 231 196 234 242 253 229 253 357 253 278 287 266 245 248 244 216 226 232 236 231 223 229 228 230 233 234 232 233 233 237 235 236 238 238 236 236 233 229 229 229 236 243 246 246 242 237 237 232 231 231 231 231 234 236 238 238 232 235 234 229
212 213 213 216 213 220 218 219 220 217 204 214 212 206 207 207 195 195 200 204 205 217 224 231 209 230 206 223 234 241 249 241 221 177 232 261 269 259 264 223 231 236 233 231 234 228 225 230 233 233 230 232 230 232 233 235 236 237 238 235 236 235 233 230 228 228 233 238 240 243 247 240 235 236 233 231 231 231 232 234 237 238 236 236 232
197 205 204 208 212 214 217 215 218 215 210 215 204 204 213 222 220 214 212 217 218 222 228 237 237 240 231 223 200 235 245 253 237 233 247 231 257 263 265 265 260 238 210 224 216 231 235 234 237 234 231 231 230 233 231 233 234 235 236 236 236 237 236 233 231 229 229 230 230 236 243 249 246 237 235 234 233 229 231 234 234 237 237 238 236
210 218 234 220 199 199 209 220 226 223 221 219 218 212 206 220 225 224 222 220 222 221 227 235 234 232 213 204 221 216 223 233 236 222 231 239 245 258 260 248 255 271 245 219 223 228 228 228 233 234 231 228 230 229 230 231 232 235 237 236 234 237 238 238 236 234 231 230 231 230 235 241 246 246 238 236 237 235 232 231 232 234 234 236 238
249 233 223 206 215 215 212 220 225 225 222 217 213 202 209 213 226 225 226 219 216 220 220 221 214 227 230 208 223 229 235 233 223 218 210 239 249 264 265 274 268 253 269 239 218 225 221 228 225 229 227 229 229 229 230 233 233 232 236 237 234 234 236 237 238 239 237 235 234 231 232 234 237 241 245 245 243 239 235 236 234 233 230 230 232
246 251 254 239 217 212 203 205 223 223 226 219 225 222 224 228 227 228 225 221 216 220 225 223 219 225 229 228 231 234 239 242 244 245 250 252 251 265 265 268 271 277 272 224 252 223 228 233 228 227 230 228 229 228 229 230 233 229 231 237 232 235 234 237 239 240 241 239 237 236 234 235 236 238 242 245 247 245 240 240 239 238 236 235 234
240 242 246 252 254 250 249 245 237 234 225 226 216 214 220 220 225 230 228 225 222 224 231 234 234 237 236 239 231 234 240 238 242 244 247 251 254 252 274 270 260 276 273 251 214 259 236 220 225 227 226 231 233 231 229 229 231 231 230 232 235 235 235 237 237 239 240 240 241 239 237 238 237 236 238 243 244 246 246 246 244 244 242 239 238
238 238 235 242 247 248 247 239 229 236 235 228 230 233 231 236 236 238 241 237 237 233 236 233 235 233 230 234 242 240 242 239 235 238 241 244 249 257 265 282 282 262 275 265 254 222 252 236 207 219 220 223 226 232 232 231 232 231 231 234 236 232 235 233 236 237 237 238 240 242 240 236 234 236 238 242 241 242 246 246 251 248 243 241 239
230 231 213 208 237 252 254 254 250 247 233 223 222 222 223 231 239 239 242 226 231 229 234 231 235 237 238 238 240 243 242 245 244 245 242 247 252 257 261 265 277 288 276 276 267 264 230 254 210 215 219 220 227 228 226 233 235 235 234 235 236 235 231 231 235 237 237 237 237 239 241 240 236 236 237 238 232 232 238 245 249 249 250 250 244
238 244 245 218 210 235 250 256 258 255 251 242 230 218 216 223 237 243 244 233 231 232 232 232 237 235 236 235 238 246 242 245 247 246 248 246 246 252 248 251 259 267 285 284 276 268 268 189 260 214 206 221 227 222 235 231 234 233 231 230 234 235 229 228 233 236 238 238 238 237 239 241 240 236 237 238 238 234 235 237 242 244 244 246 250
240 242 242 251 253 238 244 251 253 254 254 253 248 227 207 224 237 244 247 242 236 238 234 234 237 233 238 236 236 246 241 242 244 243 243 241 241 239 239 240 239 252 264 280 284 260 274 224 229 255 182 220 212 225 221 228 227 229 231 232 232 233 234 231 230 235 238 240 239 239 238 239 242 241 237 236 235 235 233 237 239 238 237 238 244
234 228 225 239 241 247 247 249 253 255 260 258 255 260 255 245 243 259 255 244 242 243 239 234 237 231 236 238 235 242 240 241 241 242 240 240 241 236 237 233 234 238 257 266 280 277 167 271 215 240 221 208 214 222 222 226 228 227 230 231 233 232 232 234 233 236 238 240 241 242 243 242 242 241 238 234 235 233 233 236 237 233 234 235 239
245 245 245 240 239 238 240 243 247 253 261 269 273 267 256 250 260 263 261 251 249 245 247 237 240 235 238 243 241 243 242 240 241 240 240 235 234 233 229 229 232 227 244 252 254 273 244 259 272 264 232 230 215 225 231 235 232 230 233 230 235 237 235 238 235 232 233 237 239 242 244 245 244 245 244 239 236 233 229 232 235 233 232 233 238
259 249 243 242 246 246 250 252 257 264 271 276 276 273 267 265 259 261 266 262 257 256 252 250 243 242 240 243 244 243 238 240 241 238 236 235 228 232 230 233 236 229 228 240 254 266 278 222 264 263 264 244 246 204 234 227 233 227 231 234 236 233 232 234 236 232 230 233 238 241 242 244 244 246 249 245 238 234 230 231 236 235 236 235 232
250 252 255 262 260 262 264 275 277 278 278 275 275 278 277 275 271 267 267 265 262 256 245 249 241 240 242 243 246 245 233 237 237 237 233 228 225 229 231 227 237 235 220 237 249 260 273 275 240 265 259 238 260 203 224 233 237 223 230 230 231 229 231 232 234 232 217 226 230 234 237 240 243 243 244 246 244 243 239 236 234 233 234 236 232
259 258 277 284 290 288 280 281 287 286 285 287 288 284 284 285 284 278 273 272 270 268 264 260 255 245 241 239 247 245 242 245 242 244 235 238 235 239 240 232 238 235 229 228 243 255 263 273 266 262 262 254 250 259 230 234 240 229 236 232 227 230 231 232 234 236 216 223 230 233 235 237 238 239 240 243 247 245 242 238 236 234 233 233 233
286 301 295 299 297 294 291 290 286 290 294 295 294 293 291 293 289 283 280 274 273 273 273 272 271 264 258 262 260 258 257 255 253 254 252 252 250 249 248 241 239 240 232 232 234 248 264 273 275 254 269 267 266 257 255 244 227 235 233 245 232 237 235 230 234 238 230 229 233 234 236 237 239 239 240 241 242 242 238 237 236 234 233 230 230
333 330 331 337 311 303 305 308 309 311 306 301 299 297 293 287 282 278 278 279 277 277 275 274 271 266 265 260 263 255 252 252 255 249 253 251 249 248 246 243 241 241 238 232 236 240 253 262 272 270 256 264 266 266 247 244 244 233 242 242 236 238 241 241 243 239 235 233 237 237 238 239 240 242 242 243 242 243 240 236 230 223 224 225 227
359 1 355 343 333 309 308 309 307 306 308 306 303 297 290 284 279 276 274 271 271 269 269 268 266 264 261 260 259 254 249 250 255 252 248 247 247 246 246 247 244 245 243 239 236 240 244 255 263 276 268 258 273 263 247 231 249 256 245 237 244 241 243 250 237 235 235 231 234 238 240 242 243 243 243 244 244 243 241 236 232 227 219 220 222
24 17 10 347 335 323 314 313 304 302 299 298 297 290 282 278 274 271 272 271 270 270 267 267 266 264 262 262 262 256 254 252 256 256 255 254 247 248 245 247 248 245 248 246 240 242 244 253 261 261 272 269 253 270 264 214 241 239 254 268 259 223 217 233 247 232 223 234 236 234 238 238 240 242 243 242 243 241 239 236 235 228 219 218 220
28 19 357 352 334 323 317 310 309 307 301 294 287 283 279 275 274 271 272 272 272 270 271 269 267 266 263 262 259 257 253 254 253 257 252 256 254 255 249 244 249 245 248 249 245 245 249 253 256 266 263 270 270 250 262 203 240 255 233 240 259 259 227 228 231 234 225 219 234 234 238 242 247 245 244 243 243 243 241 237 235 232 223 213 214
14 8 349 342 326 314 309 300 299 295 285 274 266 263 265 268 271 275 277 276 276 276 275 271 267 264 264 259 257 253 249 249 248 249 250 249 255 258 253 239 245 244 247 247 246 245 249 252 260 261 266 268 264 265 259 248 233 247 232 208 245 255 256 257 245 218 219 221 232 233 233 219 231 237 234 238 239 240 242 240 239 233 219 215 209
359 348 334 314 304 300 307 303 295 282 267 260 242 239 243 256 270 275 277 276 275 272 274 276 272 265 263 262 262 257 254 251 248 248 248 248 246 247 256 250 247 248 247 248 248 245 247 253 256 261 263 261 264 257 255 254 250 237 238 227 242 252 248 254 263 231 193 211 225 235 231 215 219 235 229 233 236 231 235 233 231 232 223 211 202
344 339 321 313 311 306 298 300 292 279 265 248 243 244 250 247 251 265 269 272 269 267 267 268 271 271 266 261 262 259 254 251 251 249 249 249 247 248 249 248 246 247 254 252 250 244 246 251 259 257 256 263 264 263 255 262 250 237 233 230 237 246 241 248 261 255 176 196 216 233 240 210 203 230 228 230 231 227 226 225 227 226 222 213 206
346 328 316 308 311 306 294 287 278 272 273 267 262 264 266 267 258 260 267 268 267 263 260 261 264 267 267 266 261 259 254 250 251 251 246 244 246 247 248 248 247 245 242 245 253 254 245 251 258 257 259 256 267 267 262 257 256 249 235 226 230 232 239 242 247 252 207 185 207 221 241 198 194 223 231 228 222 221 223 224 221 222 221 214 207
318 324 325 320 313 305 290 284 285 282 283 284 282 281 282 281 279 270 269 266 265 266 265 262 263 265 265 266 269 259 257 253 249 250 254 256 249 245 246 248 247 244 243 243 243 245 254 254 256 262 258 262 265 264 261 258 252 257 243 233 231 233 235 241 247 254 229 186 199 220 238 221 188 215 232 228 214 219 221 219 217 219 220 215 205
323 321 316 307 299 297 298 291 283 283 283 296 296 294 292 290 288 284 270 271 267 266 265 265 264 266 263 266 271 272 264 252 248 249 251 253 257 257 252 247 247 246 244 243 245 244 243 246 252 257 261 258 258 267 268 258 250 252 251 248 234 238 237 239 242 245 241 157 198 202 246 232 190 211 234 229 205 217 217 210 212 215 212 206 200
326 322 313 305 297 293 291 288 289 287 284 285 292 296 298 298 299 299 281 277 272 270 268 263 262 263 265 265 266 270 272 265 251 246 252 256 259 259 258 257 252 251 247 240 233 234 238 241 245 251 261 264 262 262 266 262 251 248 246 250 247 244 247 258 265 253 224 190 185 186 239 235 175 212 233 221 206 216 216 211 213 214 212 205 198
306 293 297 292 294 299 298 300 298 293 288 284 292 297 298 299 302 299 288 283 280 278 274 271 268 268 269 268 269 270 270 271 266 253 248 256 263 265 264 263 262 259 256 248 240 234 238 241 244 250 255 259 261 260 259 259 259 257 255 256 258 257 255 249 250 249 232 201 188 202 237 243 187 205 232 212 205 222 217 214 216 216 214 209 204
309 310 305 302 303 304 305 304 301 298 298 296 298 298 299 300 302 292 288 283 279 280 277 277 275 273 272 268 269 272 274 273 272 265 259 253 259 264 266 267 267 267 264 261 243 242 245 246 249 251 254 258 261 264 264 262 261 259 258 256 251 246 227 242 252 252 244 195 202 204 218 246 206 194 227 206 204 217 216 214 205 217 216 213 212
310 308 304 303 302 298 298 295 291 291 291 290 285 283 284 283 278 282 284 284 280 281 283 279 279 278 275 273 266 269 273 275 278 275 271 267 265 266 268 270 272 271 269 268 261 253 251 251 251 252 252 254 256 259 261 262 263 261 257 255 259 257 247 233 251 251 256 213 208 179 204 233 189 185 197 189 206 228 219 213 201 208 217 218 215
294 291 294 299 298 292 281 282 284 281 284 291 288 280 279 280 277 272 277 280 284 284 286 286 286 283 281 278 269 261 264 273 275 273 271 267 265 264 267 268 268 270 271 276 268 267 264 260 255 258 259 258 260 259 259 259 259 258 253 256 260 254 254 248 248 261 262 243 185 168 201 226 167 207 149 143 222 229 208 207 200 201 206 208 212